sat.trackr.live / text

‹ back to catalog

STARLINK-6229

NORAD 57093 · 2023-088AX

PAYLOAD ACTIVE UNKNOWN

§ Identity

Operator
Country
US
Launch date
2023-06-22
Launch site
AFWTR
Launch vehicle
Mass (kg)
RCS (m²)

Purposes: comms

External: N2YO · Heavens-Above · Gunter

§ Orbital elements

Epoch: 2026-09-19T23:16:20.393472Z

Period
94.27 min
Inclination
43.0024°
Eccentricity
0.0001643
Mean motion
15.27597973 rev/d
Perigee alt
481.9 km
Apogee alt
484.1 km
Semi-major
6,861.1 km
B*
-2.0200e-4
RAAN
78.8697°
Arg perigee
254.9807°
Mean anomaly
105.0863°
Rev number
18,021

§ Raw data

STARLINK-62291 57093U 23088AX  26262.96968048 -.00005820  00000+0 -20200-3 0  99962 57093  43.0024  78.8697 0001643 254.9807 105.0863 15.27597973180213

JSON: /api/v1/satellites/57093 · /tle

For live sub-satellite position, see the globe view (requires WebGL).

§ Visibility from observer

Set your observer location to see the next 7 days of passes ≥ 10°. The values pass through the URL so the page stays shareable.

No JS? Fill the form by hand. The geolocation button needs JavaScript.